Location: Stoke Bliss
(52.2667°N, 2.5167°W)
Time: 19:08:32
(UTC+00:00)

USA 186 - Pass Details

Date: 03 March 2021
Orbit: 261 x 429 km, 96.9° (Epoch: 15 April)

Event Time Altitude Azimuth Distance (km) Brightness Sun altitude
Exits shadow 19:59:54 37° 271° (W) 482 2.6 -20.0°
Drops below altitude 10° 20:02:08 10° 333° (NNW) 1,189 4.6 -20.3°
Sets 20:04:09 0° 342° (NNW) 2,055 5.8 -20.6°
